Regional Weather Roundup
Issued by NWS Bismarck, ND

Home | Current Version | Previous Version | Text Only | Print | Product List | Glossary On
Versions: 1 2 3 4 5 6 7 8 9 10 11 12 13 14 15 16 17 18 19 20 21 22 23 24 25 26 27 28 29 30 31 32 33 34 35 36 37 38 39 40 41 42 43 44 45 46 47 48 49 50
000
ASUS43 KBIS 062210
RWRBIS

NWR BROADCAST TEXT
NATIONAL WEATHER SERVICE BISMARCK ND
500 PM CDT WED MAY 06 2015

NOTE: "FAIR" INDICATES FEW OR NO CLOUDS BELOW 12,000 FEET WITH NO
SIGNIFICANT WEATHER AND/OR OBSTRUCTIONS TO VISIBILITY.


CITY           SKY/WX    TMP DP  RH WIND       PRES   REMARKS
WILLISTON      RAIN      54  51  90 N20       29.70R FOG
MINOT          RAIN      59  56  89 SW8       29.64S FOG
MINOT AFB      LGT RAIN  59  59 100 S8        29.64R FOG
BISMARCK       CLOUDY    70  58  65 SE14      29.63F
DICKINSON      CLOUDY    62  55  77 NE9       29.63F
GARRISON         N/A     62  59  90 NW12      29.64F
HETTINGER ARPT CLOUDY    63  54  72 VRB3      29.63F
JAMESTOWN      LGT RAIN  61  59  93 E14       29.69F FOG
BEACH          LGT RAIN  52  52 100 NW22G30   29.72R
CARRINGTON     CLOUDY    61  61 100 SE20G25   29.71F FOG
CROSBY         LGT RAIN  50  50 100 N17G24    29.72S
HARVEY         CLOUDY    63  63 100 SE15G23   29.68F
HAZEN          FAIR      63  61  94 NW7       29.64F
LINTON         MOCLDY    68  63  83 SE14G22   29.63F
MANDAN         FAIR      64  61  88 E12       29.64F
OAKES          LGT RAIN  61  61 100 E21       29.67F
STANLEY        LGT RAIN  57  57 100 NW7       29.67F
WATFORD CITY   LGT RAIN  59  59 100 NW14      29.65F
$$

CITY           SKY/WX    TMP DP  RH WIND       PRES   REMARKS
GRAND FORKS    LGT RAIN  62  60  93 SE15      29.76F FOG
GRAND FORKS AF LGT RAIN  62  60  94 SE12      29.76F FOG
DEVILS LAKE    CLOUDY    61  55  82 SE14      29.72F
FARGO          LGT RAIN  66  60  81 E15       29.74F
CANDO          CLOUDY    61  59  94 SE23      29.72F
CAVALIER       CLOUDY    63  61  94 SE12G18   29.77F FOG
GRAFTON        DRIZZLE   63  63 100 SE15G22   29.78F
GWINNER          N/A     63  63 100 E13       29.70F
LANGDON        CLOUDY    61  61 100 SE23G29   29.76F
WALHALLA       CLOUDY    63  63 100 SE16      29.77F
$$

CITY           SKY/WX    TMP DP  RH WIND       PRES   REMARKS
ABERDEEN       LGT RAIN  65  61  87 S21G31    29.63F FOG
MOBRIDGE       CLOUDY    70  59  68 SE15      29.58F
BUFFALO          N/A     56  52  86 NW25G32   29.60S
RAPID CITY     TSTM      60  56  86 E13       29.59F
GLASGOW        PTSUNNY   59  39  47 NW21G30   29.82S
SIDNEY         CLOUDY    54  48  82 NW23      29.72S
WOLF POINT     CLOUDY    58  43  57 N20G28    29.79S
GLENDIVE       CLOUDY    52  46  82 NW24G32   29.74S
MILES CITY     CLOUDY    50  46  86 NW18G28   29.80S
BAKER          LGT RAIN  53  51  93 NW22G30   29.72S
$$

CITY           SKY/WX    TMP DP  RH WIND       PRES   REMARKS
BILLINGS       CLOUDY    56  31  38 N14       29.87F
GREAT FALLS    MOSUNNY   57  24  28 N10       29.91F
REGINA         CLOUDY    54  46  76 NW17G24   29.76S
ESTEVAN        LGT RAIN  55  54  94 NW15G21   29.71S
$$




USA.gov is the U.S. government's official web portal to all federal, state and local government web resources and services.